White Star — ZCNP2 — position and weather

sailwx.info

Track history (hours):
 
Tides and Currents Weather Stations Pressure Air Temp Water Temp Dewpoint Dewpoint Depression Visibility Wind Speed Wind Dir Waves Ship Positions

White Star

Last reported at 2014-Aug-28 19:26 UTC. Time now 2014-Aug-29 16:22 UTC.
Position N 43°53' E 008°01'.

Length 45 m.

Type: Pleasure craft. MMSI: 319035000.

Date/timePositionNaut miles runAvg speedWind from/ knotsBaromVisibWave heightAir tempDewpointWater temp
2014-Aug-28 19:26N 43°53' E 008°01'0 0.0
2014-Aug-28 18:32N 43°53' E 008°01'0 0.0
2014-Aug-28 16:32N 43°53' E 008°01'0 0.0
2014-Aug-28 15:24N 43°53' E 008°01'0 0.0
2014-Aug-28 14:33N 43°53' E 008°01'0 0.0
2014-Aug-28 09:06N 43°53' E 008°01'0 0.0
2014-Aug-28 08:17N 43°53' E 008°01'26 0.6
2014-Aug-26 11:28N 43°39' E 007°31'1314.2
2014-Aug-26 10:33N 43°34' E 007°15'10 9.5
2014-Aug-26 09:33N 43°32' E 007°02'0 0.0
2014-Aug-26 08:30N 43°32' E 007°02'0 0.0
2014-Aug-26 07:33N 43°32' E 007°02'0 0.0
2014-Aug-26 06:31N 43°32' E 007°02'0 0.0
2014-Aug-26 05:33N 43°32' E 007°02'0 0.0
2014-Aug-26 04:33N 43°32' E 007°02'0 0.0
2014-Aug-26 03:33N 43°32' E 007°02'0 0.0
2014-Aug-26 02:33N 43°32' E 007°02'0 0.0
2014-Aug-26 01:33N 43°32' E 007°02'0 0.0
2014-Aug-26 00:32N 43°32' E 007°02'0 0.0
2014-Aug-25 23:33N 43°32' E 007°02'0 0.0
2014-Aug-25 22:33N 43°32' E 007°02'0 0.0
2014-Aug-25 21:33N 43°32' E 007°02'0 0.0
2014-Aug-25 19:32N 43°32' E 007°02'0 0.0
2014-Aug-25 18:28N 43°32' E 007°02'0 0.0
2014-Aug-25 17:28N 43°32' E 007°02'0 0.0
2014-Aug-25 16:29N 43°32' E 007°02'0 0.0
2014-Aug-25 15:33N 43°32' E 007°02'0 0.0
2014-Aug-25 14:30N 43°32' E 007°02'0 0.0
2014-Aug-25 13:33N 43°32' E 007°02'0 0.0
2014-Aug-25 12:32N 43°32' E 007°02'0 0.0
2014-Aug-25 11:32N 43°32' E 007°02'0 0.0
2014-Aug-25 10:28N 43°32' E 007°02'0 0.0
2014-Aug-25 09:33N 43°32' E 007°02'0 0.0
2014-Aug-25 08:33N 43°32' E 007°02'0 0.0
2014-Aug-25 07:33N 43°32' E 007°02'0 0.0
2014-Aug-25 06:27N 43°32' E 007°02'0 0.0
2014-Aug-25 05:33N 43°32' E 007°02'0 0.2
2014-Aug-25 04:33N 43°32' E 007°01'1514.7
2014-Aug-25 03:33N 43°21' E 006°48'9 9.2
2014-Aug-25 02:33N 43°16' E 006°37'0 0.0
2014-Aug-25 01:21N 43°16' E 006°37'0 0.0
2014-Aug-25 00:33N 43°16' E 006°37'0 0.0
2014-Aug-24 23:30N 43°16' E 006°37'0 0.0
2014-Aug-24 22:33N 43°16' E 006°37'0 0.0
2014-Aug-24 21:32N 43°16' E 006°37'0 0.0
2014-Aug-24 20:32N 43°16' E 006°37'0 0.0
2014-Aug-24 19:33N 43°16' E 006°37'0 0.0
2014-Aug-24 18:30N 43°16' E 006°37'0 0.0
2014-Aug-24 17:26N 43°16' E 006°37'0 0.0
2014-Aug-24 16:29N 43°16' E 006°37'0 0.0
2014-Aug-24 15:33N 43°16' E 006°37'0 0.0
2014-Aug-24 14:33N 43°16' E 006°37'0 0.0
2014-Aug-24 13:33N 43°16' E 006°37'0 0.0
2014-Aug-24 12:31N 43°16' E 006°37'0 0.0
2014-Aug-24 11:32N 43°16' E 006°37'0 0.0
2014-Aug-24 10:29N 43°16' E 006°37'0 0.0
2014-Aug-24 09:33N 43°16' E 006°37'0 0.0
2014-Aug-24 08:33N 43°16' E 006°37'0 0.0
2014-Aug-24 07:33N 43°16' E 006°37'0 0.0
2014-Aug-24 06:26N 43°16' E 006°37'0 0.0
2014-Aug-24 05:33N 43°16' E 006°37'0 0.0
2014-Aug-24 04:33N 43°16' E 006°37'0 0.0
2014-Aug-24 03:33N 43°16' E 006°37'0 0.0
2014-Aug-24 02:33N 43°16' E 006°37'0 0.0
2014-Aug-24 01:33N 43°16' E 006°37'0 0.0
2014-Aug-24 00:32N 43°16' E 006°37'0 0.0
2014-Aug-23 23:33N 43°16' E 006°37'0 0.0
2014-Aug-23 22:33N 43°16' E 006°37'0 0.0
2014-Aug-23 21:33N 43°16' E 006°37'0 0.0
2014-Aug-23 20:32N 43°16' E 006°37'0 0.0
2014-Aug-23 19:33N 43°16' E 006°37'0 0.0
2014-Aug-23 03:33N 43°16' E 006°37'0 0.0
2014-Aug-23 02:12N 43°16' E 006°37'0 0.0
2014-Aug-23 01:33N 43°16' E 006°37'0 0.0
2014-Aug-23 00:32N 43°16' E 006°37'0 0.0
2014-Aug-22 23:32N 43°16' E 006°37'0 0.0
2014-Aug-22 22:32N 43°16' E 006°37'0 0.0
2014-Aug-22 21:31N 43°16' E 006°37'0 0.0
2014-Aug-22 20:31N 43°16' E 006°37'0 0.0
2014-Aug-22 19:33N 43°16' E 006°37'0 0.0
2014-Aug-22 18:33N 43°16' E 006°37'0 0.0
2014-Aug-22 17:33N 43°16' E 006°37'0 0.0
2014-Aug-22 16:33N 43°16' E 006°37'0 0.0
2014-Aug-22 15:34N 43°16' E 006°37'0 0.0
2014-Aug-22 14:34N 43°16' E 006°37'0 0.0
2014-Aug-22 13:33N 43°16' E 006°37'0 0.0
2014-Aug-22 12:33N 43°16' E 006°37'0 0.0
2014-Aug-22 11:33N 43°16' E 006°37'0 0.0
2014-Aug-22 10:24N 43°16' E 006°37'0 0.0
2014-Aug-22 09:33N 43°16' E 006°37'0 0.0
2014-Aug-22 07:30N 43°16' E 006°37'0 0.0
2014-Aug-22 06:17N 43°16' E 006°37'0 0.0
2014-Aug-22 05:32N 43°16' E 006°37'0 0.0
2014-Aug-22 04:26N 43°16' E 006°37'0 0.0
2014-Aug-22 03:33N 43°16' E 006°37'0 0.0
2014-Aug-22 02:28N 43°16' E 006°37'0 0.0
2014-Aug-22 01:33N 43°16' E 006°37'0 0.0
2014-Aug-22 00:33N 43°16' E 006°37'0 0.0
2014-Aug-21 23:32N 43°16' E 006°37'0 0.0
2014-Aug-21 22:33N 43°16' E 006°37'0 0.0
2014-Aug-21 21:34N 43°16' E 006°37'0 0.0
2014-Aug-21 20:33N 43°16' E 006°37'0 0.0
2014-Aug-21 19:33N 43°16' E 006°37'0 0.0
2014-Aug-21 18:33N 43°16' E 006°37'0 0.0
2014-Aug-21 17:34N 43°16' E 006°37'0 0.0
2014-Aug-21 16:32N 43°16' E 006°37'0 0.0
2014-Aug-21 15:33N 43°16' E 006°37'0 0.0
2014-Aug-21 14:32N 43°16' E 006°37'0 0.0
2014-Aug-21 13:33N 43°16' E 006°37'0 0.0
2014-Aug-21 12:27N 43°16' E 006°37'0 0.0
2014-Aug-21 11:33N 43°16' E 006°37'0 0.0
2014-Aug-21 10:34N 43°16' E 006°37'0 0.0
2014-Aug-21 09:34N 43°16' E 006°37'0 0.0
2014-Aug-21 08:33N 43°16' E 006°37'0 0.0
2014-Aug-21 07:32N 43°16' E 006°37'0 0.3
2014-Aug-21 06:33N 43°16' E 006°37'0 0.0
2014-Aug-21 05:33N 43°16' E 006°37'0 0.0
2014-Aug-21 04:33N 43°16' E 006°37'0 0.0
2014-Aug-21 03:33N 43°16' E 006°37'0 0.0
2014-Aug-21 02:34N 43°16' E 006°37'6 6.2
2014-Aug-21 01:34N 43°15' E 006°45'1414.5
2014-Aug-21 00:34N 43°04' E 006°58'11313.7
2014-Aug-20 16:20N 41°38' E 008°36'54 7.4
2014-Aug-20 09:04N 41°04' E 009°33'0 0.0
2014-Aug-20 08:33N 41°04' E 009°33'  
Track history (hours):
 
Tides and Currents Weather Stations Pressure Air Temp Water Temp Dewpoint Dewpoint Depression Visibility Wind Speed Wind Dir Waves Ship Positions

White Star

Last reported at 2014-Aug-28 19:26 UTC. Time now 2014-Aug-29 16:22 UTC.
Position N 43°53' E 008°01'.

Length 45 m.

Type: Pleasure craft. MMSI: 319035000.

Date/timePositionNaut miles runAvg speedWind from/ knotsBaromVisibWave heightAir tempDewpointWater temp
2014-Aug-28 19:26N 43°53' E 008°01'0 0.0
2014-Aug-28 18:32N 43°53' E 008°01'0 0.0
2014-Aug-28 16:32N 43°53' E 008°01'0 0.0
2014-Aug-28 15:24N 43°53' E 008°01'0 0.0
2014-Aug-28 14:33N 43°53' E 008°01'0 0.0
2014-Aug-28 09:06N 43°53' E 008°01'0 0.0
2014-Aug-28 08:17N 43°53' E 008°01'26 0.6
2014-Aug-26 11:28N 43°39' E 007°31'1314.2
2014-Aug-26 10:33N 43°34' E 007°15'10 9.5
2014-Aug-26 09:33N 43°32' E 007°02'0 0.0
2014-Aug-26 08:30N 43°32' E 007°02'0 0.0
2014-Aug-26 07:33N 43°32' E 007°02'0 0.0
2014-Aug-26 06:31N 43°32' E 007°02'0 0.0
2014-Aug-26 05:33N 43°32' E 007°02'0 0.0
2014-Aug-26 04:33N 43°32' E 007°02'0 0.0
2014-Aug-26 03:33N 43°32' E 007°02'0 0.0
2014-Aug-26 02:33N 43°32' E 007°02'0 0.0
2014-Aug-26 01:33N 43°32' E 007°02'0 0.0
2014-Aug-26 00:32N 43°32' E 007°02'0 0.0
2014-Aug-25 23:33N 43°32' E 007°02'0 0.0
2014-Aug-25 22:33N 43°32' E 007°02'0 0.0
2014-Aug-25 21:33N 43°32' E 007°02'0 0.0
2014-Aug-25 19:32N 43°32' E 007°02'0 0.0
2014-Aug-25 18:28N 43°32' E 007°02'0 0.0
2014-Aug-25 17:28N 43°32' E 007°02'0 0.0
2014-Aug-25 16:29N 43°32' E 007°02'0 0.0
2014-Aug-25 15:33N 43°32' E 007°02'0 0.0
2014-Aug-25 14:30N 43°32' E 007°02'0 0.0
2014-Aug-25 13:33N 43°32' E 007°02'0 0.0
2014-Aug-25 12:32N 43°32' E 007°02'0 0.0
2014-Aug-25 11:32N 43°32' E 007°02'0 0.0
2014-Aug-25 10:28N 43°32' E 007°02'0 0.0
2014-Aug-25 09:33N 43°32' E 007°02'0 0.0
2014-Aug-25 08:33N 43°32' E 007°02'0 0.0
2014-Aug-25 07:33N 43°32' E 007°02'0 0.0
2014-Aug-25 06:27N 43°32' E 007°02'0 0.0
2014-Aug-25 05:33N 43°32' E 007°02'0 0.2
2014-Aug-25 04:33N 43°32' E 007°01'1514.7
2014-Aug-25 03:33N 43°21' E 006°48'9 9.2
2014-Aug-25 02:33N 43°16' E 006°37'0 0.0
2014-Aug-25 01:21N 43°16' E 006°37'0 0.0
2014-Aug-25 00:33N 43°16' E 006°37'0 0.0
2014-Aug-24 23:30N 43°16' E 006°37'0 0.0
2014-Aug-24 22:33N 43°16' E 006°37'0 0.0
2014-Aug-24 21:32N 43°16' E 006°37'0 0.0
2014-Aug-24 20:32N 43°16' E 006°37'0 0.0
2014-Aug-24 19:33N 43°16' E 006°37'0 0.0
2014-Aug-24 18:30N 43°16' E 006°37'0 0.0
2014-Aug-24 17:26N 43°16' E 006°37'0 0.0
2014-Aug-24 16:29N 43°16' E 006°37'0 0.0
2014-Aug-24 15:33N 43°16' E 006°37'0 0.0
2014-Aug-24 14:33N 43°16' E 006°37'0 0.0
2014-Aug-24 13:33N 43°16' E 006°37'0 0.0
2014-Aug-24 12:31N 43°16' E 006°37'0 0.0
2014-Aug-24 11:32N 43°16' E 006°37'0 0.0
2014-Aug-24 10:29N 43°16' E 006°37'0 0.0
2014-Aug-24 09:33N 43°16' E 006°37'0 0.0
2014-Aug-24 08:33N 43°16' E 006°37'0 0.0
2014-Aug-24 07:33N 43°16' E 006°37'0 0.0
2014-Aug-24 06:26N 43°16' E 006°37'0 0.0
2014-Aug-24 05:33N 43°16' E 006°37'0 0.0
2014-Aug-24 04:33N 43°16' E 006°37'0 0.0
2014-Aug-24 03:33N 43°16' E 006°37'0 0.0
2014-Aug-24 02:33N 43°16' E 006°37'0 0.0
2014-Aug-24 01:33N 43°16' E 006°37'0 0.0
2014-Aug-24 00:32N 43°16' E 006°37'0 0.0
2014-Aug-23 23:33N 43°16' E 006°37'0 0.0
2014-Aug-23 22:33N 43°16' E 006°37'0 0.0
2014-Aug-23 21:33N 43°16' E 006°37'0 0.0
2014-Aug-23 20:32N 43°16' E 006°37'0 0.0
2014-Aug-23 19:33N 43°16' E 006°37'0 0.0
2014-Aug-23 03:33N 43°16' E 006°37'0 0.0
2014-Aug-23 02:12N 43°16' E 006°37'0 0.0
2014-Aug-23 01:33N 43°16' E 006°37'0 0.0
2014-Aug-23 00:32N 43°16' E 006°37'0 0.0
2014-Aug-22 23:32N 43°16' E 006°37'0 0.0
2014-Aug-22 22:32N 43°16' E 006°37'0 0.0
2014-Aug-22 21:31N 43°16' E 006°37'0 0.0
2014-Aug-22 20:31N 43°16' E 006°37'0 0.0
2014-Aug-22 19:33N 43°16' E 006°37'0 0.0
2014-Aug-22 18:33N 43°16' E 006°37'0 0.0
2014-Aug-22 17:33N 43°16' E 006°37'0 0.0
2014-Aug-22 16:33N 43°16' E 006°37'0 0.0
2014-Aug-22 15:34N 43°16' E 006°37'0 0.0
2014-Aug-22 14:34N 43°16' E 006°37'0 0.0
2014-Aug-22 13:33N 43°16' E 006°37'0 0.0
2014-Aug-22 12:33N 43°16' E 006°37'0 0.0
2014-Aug-22 11:33N 43°16' E 006°37'0 0.0
2014-Aug-22 10:24N 43°16' E 006°37'0 0.0
2014-Aug-22 09:33N 43°16' E 006°37'0 0.0
2014-Aug-22 07:30N 43°16' E 006°37'0 0.0
2014-Aug-22 06:17N 43°16' E 006°37'0 0.0
2014-Aug-22 05:32N 43°16' E 006°37'0 0.0
2014-Aug-22 04:26N 43°16' E 006°37'0 0.0
2014-Aug-22 03:33N 43°16' E 006°37'0 0.0
2014-Aug-22 02:28N 43°16' E 006°37'0 0.0
2014-Aug-22 01:33N 43°16' E 006°37'0 0.0
2014-Aug-22 00:33N 43°16' E 006°37'0 0.0
2014-Aug-21 23:32N 43°16' E 006°37'0 0.0
2014-Aug-21 22:33N 43°16' E 006°37'0 0.0
2014-Aug-21 21:34N 43°16' E 006°37'0 0.0
2014-Aug-21 20:33N 43°16' E 006°37'0 0.0
2014-Aug-21 19:33N 43°16' E 006°37'0 0.0
2014-Aug-21 18:33N 43°16' E 006°37'0 0.0
2014-Aug-21 17:34N 43°16' E 006°37'0 0.0
2014-Aug-21 16:32N 43°16' E 006°37'0 0.0
2014-Aug-21 15:33N 43°16' E 006°37'0 0.0
2014-Aug-21 14:32N 43°16' E 006°37'0 0.0
2014-Aug-21 13:33N 43°16' E 006°37'0 0.0
2014-Aug-21 12:27N 43°16' E 006°37'0 0.0
2014-Aug-21 11:33N 43°16' E 006°37'0 0.0
2014-Aug-21 10:34N 43°16' E 006°37'0 0.0
2014-Aug-21 09:34N 43°16' E 006°37'0 0.0
2014-Aug-21 08:33N 43°16' E 006°37'0 0.0
2014-Aug-21 07:32N 43°16' E 006°37'0 0.3
2014-Aug-21 06:33N 43°16' E 006°37'0 0.0
2014-Aug-21 05:33N 43°16' E 006°37'0 0.0
2014-Aug-21 04:33N 43°16' E 006°37'0 0.0
2014-Aug-21 03:33N 43°16' E 006°37'0 0.0
2014-Aug-21 02:34N 43°16' E 006°37'6 6.2
2014-Aug-21 01:34N 43°15' E 006°45'1414.5
2014-Aug-21 00:34N 43°04' E 006°58'11313.7
2014-Aug-20 16:20N 41°38' E 008°36'54 7.4
2014-Aug-20 09:04N 41°04' E 009°33'0 0.0
2014-Aug-20 08:33N 41°04' E 009°33'  

Dump ship's entire track history